カタログに戻る

SL-8 DEB *

運用中LEO
NORAD 14865·DEBRIS·🇷🇺 Russia

打ち上げ Sep 30, 1975 から Plesetsk Cosmodrome

Loading…

次のパス (今後24時間)

TLE

最新Source: Space-Track

元期: Sep 14, 2026, 10:22 UTC

1 14865U 75094E   26257.43217435  .00003155  00000-0  37586-3 0  9996
2 14865  74.0208   4.2283 0001163 336.2666 140.9946 14.84792114761793

AllMySatでSL-8 DEB *をリアルタイム追跡

Download on the App Store